Wind_Speed
20 19 18 18 18 18 18 17 17 16 16 16 16 16 15 15 15 15 15 15 15 15 16 17 18 19 19 19 18 18 18 18 20 21 21 23 25 25 26 26 25 25
21 20 20 19 18 18 18 18 18 18 18 18 17 16 16 15 14 14 15 15 16 17 16 16 16 17 18 18 19 20 20 20 20 21 20 22 24 25 26 26 25 25
22 22 22 21 20 19 18 18 18 18 19 19 18 18 17 16 14 14 13 14 17 19 18 18 18 18 17 16 17 19 21 22 22 22 22 22 23 24 26 26 26 26
23 23 22 22 21 19 19 19 19 19 20 20 20 20 20 18 17 16 14 14 18 20 20 20 20 20 20 18 17 17 18 19 20 21 23 24 24 24 25 25 25 26
23 23 22 23 22 20 20 20 20 21 22 23 23 23 23 22 22 21 19 17 19 21 22 23 23 23 23 22 21 20 19 18 18 19 21 23 23 24 25 25 25 26
24 23 23 24 24 22 22 21 21 22 24 25 26 26 25 24 25 25 23 20 20 23 26 26 27 28 27 26 24 24 23 22 21 21 22 23 23 22 24 25 25 25
23 22 22 24 24 23 22 21 21 23 24 25 27 28 27 26 26 26 25 22 20 24 28 29 30 31 32 31 29 27 26 25 24 22 23 25 24 23 22 23 24 25
22 22 21 22 22 22 21 20 21 23 24 25 27 28 28 28 27 26 26 23 20 23 28 32 32 34 35 35 34 32 30 28 26 24 24 25 26 25 24 23 23 25
22 22 22 22 21 21 20 19 19 20 23 25 26 27 27 28 28 28 27 25 21 21 25 31 34 36 37 38 36 34 32 30 28 27 26 26 26 27 26 25 25 25
24 24 24 24 23 22 22 20 19 19 20 22 24 25 26 27 28 28 28 26 22 21 24 29 32 34 37 40 39 36 32 30 29 28 27 27 27 27 27 26 25 25
26 25 25 25 25 24 24 23 22 21 20 21 22 23 24 26 27 28 28 26 22 21 22 26 29 31 35 39 40 38 33 29 28 28 28 27 27 27 26 25 24 24
25 25 25 25 25 25 25 25 25 24 23 22 22 22 22 23 25 26 28 26 23 21 22 26 30 33 35 38 41 39 34 29 27 28 28 28 27 27 26 25 23 23
25 25 25 24 23 24 24 25 26 26 25 24 23 23 23 23 23 25 26 26 24 22 24 28 32 35 37 40 41 39 35 30 28 28 29 29 28 28 28 27 24 23
23 24 25 25 24 23 22 23 25 26 25 24 24 24 24 24 23 24 25 25 25 24 25 29 33 36 39 41 42 40 36 32 27 27 29 29 29 29 29 29 27 25
22 21 22 22 23 23 21 21 22 24 25 25 25 25 25 25 24 24 25 26 26 25 26 29 34 37 39 40 40 39 38 35 27 25 29 29 28 29 29 28 28 26
23 22 22 22 22 23 21 20 20 22 24 24 25 25 25 25 25 25 26 27 27 27 27 29 34 38 38 39 39 38 37 36 29 26 28 29 28 29 30 29 29 28
25 24 25 25 25 25 24 22 19 21 23 24 25 25 24 25 26 26 27 27 28 28 28 30 34 39 39 39 39 38 36 35 31 27 28 29 28 30 31 31 30 30
27 26 26 27 27 27 27 25 21 21 24 25 25 24 24 25 26 26 26 27 27 28 29 30 34 39 41 40 39 37 36 34 31 27 27 29 29 30 32 32 30 31
29 28 28 28 28 27 27 26 24 22 23 24 25 24 24 24 26 26 26 27 28 28 29 30 33 39 41 41 40 38 36 35 32 27 27 30 30 29 31 32 30 30
30 30 29 28 28 27 27 26 26 24 23 23 24 25 25 25 25 26 27 27 28 28 29 30 33 37 40 41 41 40 37 36 33 28 26 30 32 30 30 32 31 29
30 30 30 29 29 29 30 29 28 26 25 24 24 25 26 26 26 25 26 27 27 28 30 31 33 36 39 40 41 41 39 36 34 32 28 29 32 32 30 30 31 30
28 28 28 28 29 29 29 29 28 26 26 25 25 26 27 27 27 26 25 26 27 28 30 31 33 35 37 39 40 40 39 35 34 35 32 28 31 32 30 30 31 31
26 26 26 26 26 27 27 26 26 25 25 25 25 25 26 27 28 27 26 25 26 27 29 30 33 35 37 38 39 40 39 36 34 35 34 28 28 29 28 30 31 30
25 25 25 24 23 23 23 23 24 25 25 25 25 25 25 25 27 28 27 26 26 27 28 30 32 35 36 37 38 38 38 36 34 34 34 29 26 27 28 30 32 30
24 24 25 24 23 21 19 19 20 22 24 26 27 27 26 25 26 28 28 28 27 27 29 30 32 34 36 36 36 36 36 36 34 34 34 30 26 26 29 32 35 33
21 23 24 24 22 21 19 17 17 19 22 25 27 27 28 27 28 28 29 29 29 29 29 30 31 33 35 35 34 34 35 35 35 34 33 31 28 27 29 33 36 36
Wind_Direction
64 63 60 55 52 46 41 39 37 35 32 26 23 19 13 9 4 0 0 3 4 2 358 353 347 343 340 336 329 321 313 306 300 299 298 294 288 283 281 279 273 266
66 62 58 56 54 52 48 43 39 35 31 27 23 19 14 7 1 356 357 4 11 9 0 351 346 343 339 333 327 321 317 315 310 308 304 298 295 289 284 283 280 273
65 61 59 58 55 54 51 47 41 35 32 29 25 21 18 13 8 2 360 10 17 11 1 355 354 352 348 342 332 324 319 316 314 312 307 302 299 293 287 285 282 277
66 64 63 59 55 54 54 49 41 36 35 31 27 25 24 23 23 19 18 26 24 12 4 5 4 360 357 354 348 341 332 323 320 318 312 306 302 296 292 288 283 279
67 67 65 57 54 57 57 51 42 38 38 36 33 32 30 30 30 28 28 30 23 13 10 10 8 5 1 358 355 351 346 337 330 325 318 312 307 302 298 292 285 281
69 69 64 57 57 60 59 53 45 43 43 39 37 36 34 33 32 31 31 29 21 15 14 13 10 8 4 360 356 352 349 345 337 330 324 320 316 310 303 295 286 284
69 68 65 60 60 61 60 56 49 46 44 41 38 37 36 34 31 28 27 28 23 18 18 18 14 11 8 3 359 353 349 344 339 332 325 323 323 319 313 303 293 289
70 68 64 60 57 57 58 56 50 46 45 42 40 38 37 36 31 27 25 25 22 17 17 19 16 13 11 7 2 356 351 346 341 335 328 324 323 322 319 314 305 296
69 67 64 59 55 51 50 51 48 45 44 43 42 39 37 36 32 29 26 25 23 17 15 15 15 13 10 8 4 359 352 347 343 337 331 327 323 321 318 317 312 303
68 66 64 61 57 53 50 48 45 42 40 40 40 38 37 34 31 29 27 26 25 21 15 13 13 10 8 7 5 360 351 346 344 340 335 329 324 320 317 317 315 308
69 66 63 61 59 57 54 51 48 45 42 39 37 35 34 33 30 29 28 27 25 21 14 11 10 7 6 5 4 0 353 345 342 341 338 333 328 323 318 316 313 310
68 65 63 61 60 59 56 54 51 49 47 43 39 36 34 32 31 30 30 29 27 21 14 10 10 9 6 4 3 1 355 348 344 343 341 338 335 333 329 321 313 310
68 65 63 62 61 61 59 56 53 51 49 46 42 40 37 34 31 29 28 28 26 20 15 12 10 10 8 5 4 1 356 350 348 347 346 343 341 342 341 336 325 315
69 66 63 63 63 63 61 59 57 54 52 48 43 41 39 35 32 28 25 25 23 20 16 13 12 11 9 6 4 2 360 355 350 350 351 346 342 343 344 344 338 327
68 66 63 61 60 59 60 61 60 56 53 48 44 42 40 36 33 30 26 24 23 21 17 14 13 11 9 8 6 3 3 1 355 353 355 351 345 346 346 347 344 337
65 67 65 61 57 54 54 58 60 56 52 48 45 43 41 38 35 32 30 27 25 23 20 17 14 12 11 12 11 7 5 5 0 356 357 355 352 352 351 347 346 344
63 66 67 63 60 55 52 56 62 59 52 49 45 42 40 37 35 33 31 29 27 25 22 18 15 13 13 13 14 12 9 7 2 358 359 358 356 357 355 351 349 348
62 65 65 63 61 58 56 59 65 62 53 48 45 42 39 37 34 32 30 27 26 24 22 19 14 13 15 14 14 14 13 10 4 0 1 359 357 358 358 355 352 350
62 63 65 63 61 59 58 60 62 59 52 47 44 41 40 38 34 32 29 26 24 22 21 18 15 14 15 15 14 15 15 13 8 3 1 1 357 356 357 357 355 351
64 64 64 64 63 61 59 58 57 55 52 47 42 39 38 36 32 30 28 26 24 22 20 18 16 14 15 16 15 16 16 15 12 6 1 0 359 357 356 356 356 353
68 68 67 67 66 64 61 59 57 55 53 48 43 39 36 33 30 28 26 24 22 20 19 18 17 16 16 16 15 15 16 14 12 9 3 359 0 0 357 355 356 355
71 72 71 69 67 65 62 60 56 53 50 46 42 39 35 32 30 28 25 23 21 19 18 18 18 18 17 17 15 15 16 14 10 9 6 0 359 359 357 356 357 356
74 74 74 71 67 64 62 58 55 51 47 43 40 37 34 31 28 28 28 26 23 20 18 17 18 19 18 17 15 14 15 13 9 7 6 0 356 356 356 356 358 357
75 74 75 73 68 64 62 58 54 50 49 47 44 40 38 34 30 28 29 29 27 24 20 18 18 19 19 18 16 15 14 13 9 6 5 0 353 353 356 356 356 357
76 74 74 73 70 67 64 59 54 50 50 50 48 45 42 39 35 31 29 28 27 25 23 21 18 18 19 18 17 16 14 13 11 7 4 0 354 352 355 357 357 358
78 74 73 73 71 69 67 64 59 53 51 50 48 45 42 40 37 33 30 28 26 23 22 20 17 17 18 18 17 18 17 16 14 10 4 0 356 354 354 356 358 358
Height
838 837 837 837 836 836 835 834 833 832 831 831 830 830 828 827 826 824 823 821 819 818 816 814 813 811 810 808 807 806 804 803 802 801 801 800 799 798 797 796 796 794
838 838 838 837 836 836 835 834 834 832 831 831 830 829 828 826 825 823 822 820 818 817 815 813 811 809 808 806 805 804 803 801 800 799 798 797 796 795 794 793 793 792
839 839 838 838 837 837 836 835 834 833 832 831 829 828 827 825 824 822 821 819 818 816 814 812 810 808 806 805 803 802 801 800 798 797 796 794 794 793 791 790 789 788
840 840 839 839 838 837 836 836 835 834 832 831 829 828 826 825 823 821 820 819 817 816 814 812 810 808 806 804 802 800 799 798 797 795 794 792 791 790 789 788 787 785
841 841 840 840 839 837 837 836 836 835 833 831 830 828 826 825 823 821 820 818 817 816 814 812 810 808 806 803 801 800 798 797 795 793 791 789 789 788 786 785 783 782
842 842 841 841 839 839 838 837 837 836 834 832 831 829 827 825 823 822 820 819 818 816 814 811 809 807 805 803 801 799 797 795 793 791 789 787 786 785 784 782 780 779
844 843 842 841 840 840 839 839 838 837 835 834 832 830 828 826 825 823 821 820 818 817 814 812 810 807 805 802 800 798 796 794 791 789 787 785 784 782 781 780 778 776
845 844 843 842 841 841 840 840 839 838 837 835 833 832 830 828 827 825 823 821 819 818 816 813 811 808 805 802 799 797 794 792 790 787 785 783 781 780 779 778 776 773
846 845 844 843 842 842 842 841 840 839 838 837 835 833 832 830 828 826 824 823 821 819 817 814 812 809 806 803 800 797 794 791 789 786 783 781 779 777 776 775 773 771
846 845 844 843 843 843 842 842 841 841 839 838 836 835 833 832 830 828 826 824 822 821 819 816 813 810 807 804 800 797 794 790 787 784 782 779 777 775 773 772 770 768
847 846 845 845 844 844 844 843 842 841 840 839 838 836 835 833 831 829 827 825 823 822 820 817 814 811 808 804 801 797 794 790 787 783 780 778 775 773 771 769 767 765
848 847 846 846 846 845 845 844 843 842 841 840 839 838 836 834 833 831 828 827 825 823 821 818 815 812 808 804 800 796 793 790 786 783 779 776 774 771 769 767 764 762
849 848 848 848 847 847 846 845 844 843 842 841 840 839 837 835 834 832 830 828 826 824 822 819 816 812 808 805 800 796 793 789 785 782 779 775 772 770 767 765 762 760
850 850 849 849 849 848 847 846 846 845 843 842 841 839 838 836 835 833 831 829 827 825 823 820 816 812 808 805 800 797 793 789 785 782 778 775 772 769 766 763 761 758
851 851 850 850 850 849 848 847 847 846 844 843 842 840 839 838 836 834 832 830 828 826 823 820 817 813 810 806 802 797 793 789 786 782 779 775 772 768 765 763 760 757
852 852 851 851 850 849 849 848 848 847 846 844 843 842 840 839 837 835 833 831 828 826 824 821 817 815 812 808 804 799 794 790 787 783 780 776 772 768 765 761 759 756
853 853 852 851 850 850 849 849 849 848 846 845 844 843 841 839 837 835 833 831 829 827 824 821 819 816 813 808 804 800 795 791 788 784 781 778 774 770 766 761 758 754
855 853 852 852 851 851 850 850 849 848 847 846 845 843 842 840 838 836 834 832 830 827 825 822 820 817 813 809 805 801 796 792 789 785 782 779 775 771 768 763 758 754
856 855 854 853 853 852 852 851 850 849 848 847 846 844 842 840 838 836 835 833 830 828 826 823 820 817 813 809 805 801 797 793 790 787 784 781 777 773 769 765 760 756
858 856 856 855 855 854 853 852 851 850 849 848 847 845 843 841 839 837 835 833 831 829 826 824 821 818 814 810 806 802 798 794 791 789 786 783 779 775 771 766 763 759
859 859 858 857 856 855 854 853 852 851 851 849 848 846 844 842 840 838 836 834 832 829 827 824 821 818 815 810 806 802 799 795 793 790 787 784 780 776 772 768 764 761
861 860 859 859 858 857 856 855 854 853 852 851 849 847 845 843 841 838 836 834 832 830 827 825 822 819 816 812 808 804 800 796 794 790 787 784 780 776 773 769 766 762
863 861 860 860 859 858 857 857 856 855 854 852 850 848 846 844 841 839 837 835 833 830 828 825 823 820 817 813 809 805 801 797 795 791 788 785 781 778 774 770 767 764
863 862 861 860 860 859 859 858 858 857 855 854 852 849 847 845 843 840 838 835 833 831 829 827 824 821 818 815 811 807 803 799 796 793 789 785 782 779 775 772 768 765
864 863 862 861 861 860 860 860 859 858 857 855 853 851 849 847 844 842 839 836 834 832 830 827 825 822 819 816 813 810 805 802 798 794 790 787 783 780 776 772 769 765
864 863 862 862 862 862 861 861 860 860 858 856 854 852 850 847 845 843 840 837 835 833 830 828 825 823 820 817 815 811 808 804 800 796 793 789 785 781 777 773 769 764